Location: Eppenbrunn
(49.1158°N, 7.5601°E)
Time: 23:42:03
(UTC+00:00)

ISS - Visible Passes

Search period start: 24 July 2021 00:00
Search period end: 03 August 2021 00:00
Orbit: 419 x 421 km, 51.6° (Epoch: 24 July)

Date Brightness Start Highest point End Pass type
(mag) Time Alt. Az. Time Alt. Az. Time Alt. Az.
24 Jul -3.2 20:18:22 10° WNW 20:21:43 57° N 20:25:04 10° E visible
24 Jul -3.7 21:55:16 10° WNW 21:58:35 57° SSW 21:58:48 55° S visible
25 Jul -3.8 21:07:55 10° WNW 21:11:18 79° SSW 21:12:58 28° ESE visible
25 Jul -1.2 22:45:19 10° W 22:45:54 13° WSW 22:45:54 13° WSW visible
26 Jul -3.7 20:20:35 10° WNW 20:23:59 81° NNE 20:27:09 11° ESE visible
26 Jul -2.3 21:57:40 10° W 22:00:06 26° SW 22:00:06 26° SW visible
27 Jul -3.0 21:10:10 10° WNW 21:13:21 39° SSW 21:14:20 30° S visible
28 Jul -3.5 20:22:46 10° WNW 20:26:05 56° SSW 20:28:36 16° SE visible
28 Jul -1.1 22:00:58 10° WSW 22:01:33 11° WSW 22:01:33 11° WSW visible
29 Jul -1.9 21:12:48 10° W 21:15:11 18° SW 21:15:51 17° SSW visible
30 Jul -2.3 20:25:07 10° W 20:28:00 26° SW 20:30:11 14° SSE visible
01 Aug -1.2 20:28:24 10° WSW 20:29:42 12° SW 20:30:59 10° SSW visible
02 Aug -1.5 19:40:11 10° W 19:42:33 18° SW 19:44:54 10° S visible
